Location: Allens Landing
(37.8284°N, 89.7284°W)
Time: 12:39:14
(UTC+00:00)

Vanguard 2 - Pass Details

Date: 20 December 2025
Orbit: 552 x 2898 km, 32.9° (Epoch: 13 January)

Event Time Altitude Azimuth Distance (km) Brightness Sun altitude
Exits shadow 10:59:11 23° 180° (S) 1,199 8.6 -25.1°
Drops below altitude 10° 11:01:40 10° 143° (SE) 1,835 10.1 -24.6°
Sets 11:04:17 0° 129° (SE) 2,824 11.5 -24.1°
